Location: Newark
(57.7279°N, 5.6916°W)
Time: 14:12:23
(UTC+00:00)

N. Korean satellite - Pass Details

Date: 15 December 2019
Orbit: 454 x 507 km, 97.2° (Epoch: 25 January)

Event Time Altitude Azimuth Distance (km) Brightness Sun altitude
Rises 18:14:27 0° 202° (SSW) 2,596 10.8 -19.1°
Reaches altitude 10° 18:16:57 10° 220° (SW) 1,711 10.1 -19.4°
Maximum altitude 18:19:45 20° 269° (W) 1,198 9.4 -19.8°
Drops below altitude 10° 18:22:32 10° 319° (NW) 1,702 9.7 -20.1°
Sets 18:25:01 0° 336° (NNW) 2,580 10.4 -20.4°
